Zurück zum Katalog

QIANFAN-51

AktivKommunikationPO
NORAD 62252·PAYLOAD·🇨🇳 China

Gestartet Dec 5, 2024 von Taiyuan Satellite Launch Center

Loading…

Nächste Überflüge (nächste 24 Stunden)

TLE

AktuellSource: Space-Track

Epoche: Sep 14, 2026, 21:08 UTC

1 62252U 24232R   26257.88117034  .00000099  00000-0  13505-3 0  9999
2 62252  89.0158  13.5222 0015162 120.3603 239.9050 13.51028082105144

Verfolge QIANFAN-51 in Echtzeit mit AllMySat

Download on the App Store